Detroit, MI

4:40 PM EST on February 24, 2017 (GMT -0500)
Detroit Metro Wayne County

Weather History for KDTW - January, 2012

Change the Weather History Date:

Monday, January 16, 2012

  Actual Average Record
Temperature  
Mean Temperature 34 °F 25 °F  
Max Temperature 44 °F 32 °F 55 °F (1953)
Min Temperature 23 °F 19 °F -15 °F (2009)
Degree Days  
Heating Degree Days 31 40  
Month to date heating degree days 527 630  
Since 1 July heating degree days 2409 2927  
Cooling Degree Days 0 0  
Month to date cooling degree days 0 0  
Year to date cooling degree days 0 0  
Moisture  
Dew Point 30 °F    
Average Humidity 79    
Maximum Humidity 96    
Minimum Humidity 62    
Precipitation  
Precipitation 0.07 in 0.06 in 0.47 in (1924)
Month to date precipitation 0.61 1.07  
Year to date precipitation 0.61 1.07  
Snow  
Snow 0.00 in 0.40 in 4.20 in (1959)
Month to date snowfall 3.5 6.5  
Since 1 July snowfall 9.8 17.7  
Snow Depth 1.00 in    
Sea Level Pressure  
Sea Level Pressure 29.96 in    
Wind  
Wind Speed 11 mph (South)    
Max Wind Speed 23 mph    
Max Gust Speed 28 mph    
Visibility 7 miles    
Events Rain    
T = Trace of Precipitation, MM = Missing Value Source: NWS Daily Summary

Daily Weather History Graph

Daily Weather History Graph

Search for Another Location

Airport or City:

Trip Planner

Search our weather history database for the weather conditions in past years. The results will help you decide how hot, cold, wet, or windy it might be!

Date:

Astronomy

Jan. 16, 2012 Rise Set
Actual Time 7:59 AM EST 5:27 PM EST
Civil Twilight 7:28 AM EST 5:58 PM EST
Nautical Twilight 6:53 AM EST 6:32 PM EST
Astronomical Twilight 6:20 AM EST 7:06 PM EST
Moon 1:04 AM EST (1/16) 11:42 AM EST (1/16)
Length of Visible Light 10h 29m
Length of Day
9h 27m
Waning Gibbous, 46% of the Moon is Illuminated
Jan 16
Waning Gibbous
Jan 23
New
Jan 30
First Quarter
Feb 7
Full
Feb 14
Last Quarter

Hourly Weather History & Observations

Time (EST) Temp. Windchill Dew Point Humidity Pressure Visibility Wind Dir Wind Speed Gust Speed Precip Events Conditions
12:53 AM 25.0 °F 17.1 °F 17.1 °F 72% 30.32 in 9.0 mi SE 6.9 mph - N/A   Clear
1:53 AM 24.1 °F 14.4 °F 17.1 °F 75% 30.27 in 8.0 mi SE 9.2 mph - N/A   Partly Cloudy
2:53 AM 26.1 °F 15.6 °F 18.0 °F 71% 30.25 in 9.0 mi SE 11.5 mph - N/A   Partly Cloudy
3:53 AM 26.1 °F 15.0 °F 18.0 °F 71% 30.22 in 10.0 mi SE 12.7 mph - N/A   Partly Cloudy
4:53 AM 26.1 °F 16.2 °F 19.0 °F 75% 30.17 in 10.0 mi SE 10.4 mph - N/A   Partly Cloudy
5:53 AM 26.1 °F 16.8 °F 19.0 °F 75% 30.13 in 10.0 mi SE 9.2 mph - N/A   Partly Cloudy
6:53 AM 26.1 °F 16.8 °F 19.0 °F 75% 30.09 in 10.0 mi SE 9.2 mph - N/A   Partly Cloudy
7:53 AM 25.0 °F 19.3 °F 19.0 °F 78% 30.07 in 8.0 mi SSE 4.6 mph - N/A   Mostly Cloudy
8:53 AM 27.0 °F 20.5 °F 21.0 °F 78% 30.05 in 8.0 mi SSE 5.8 mph - N/A   Overcast
9:53 AM 30.9 °F 21.7 °F 21.9 °F 69% 30.02 in 9.0 mi South 11.5 mph - N/A   Overcast
10:53 AM 34.0 °F 24.6 °F 25.0 °F 70% 30.00 in 10.0 mi South 13.8 mph - N/A   Overcast
11:53 AM 39.0 °F 31.0 °F 28.0 °F 65% 29.96 in 10.0 mi South 13.8 mph - N/A   Mostly Cloudy
12:53 PM 41.0 °F 32.5 °F 30.0 °F 65% 29.92 in 10.0 mi SSW 17.3 mph - N/A   Mostly Cloudy
1:53 PM 43.0 °F 34.8 °F 30.9 °F 62% 29.88 in 10.0 mi SSW 18.4 mph - N/A   Overcast
2:53 PM 42.1 °F 34.9 °F 32.0 °F 67% 29.87 in 10.0 mi South 13.8 mph 21.9 mph N/A   Overcast
3:53 PM 42.1 °F 35.2 °F 32.0 °F 67% 29.87 in 10.0 mi South 12.7 mph - N/A   Overcast
4:16 PM 42.8 °F 37.5 °F 33.8 °F 70% 29.84 in 10.0 mi South 9.2 mph - N/A   Overcast
4:53 PM 42.1 °F 35.7 °F 33.1 °F 70% 29.86 in 10.0 mi South 11.5 mph - N/A   Overcast
5:53 PM 42.1 °F 37.1 °F 34.0 °F 73% 29.86 in 10.0 mi South 8.1 mph - N/A   Overcast
6:24 PM 42.8 °F 36.6 °F 35.6 °F 76% 29.83 in 6.0 mi South 11.5 mph - 0.00 in   Light Drizzle
6:53 PM 41.0 °F 35.8 °F 37.9 °F 89% 29.85 in 4.0 mi South 8.1 mph - 0.00 in   Light Drizzle
7:09 PM 41.0 °F 35.8 °F 39.2 °F 93% 29.83 in 2.5 mi South 8.1 mph - 0.00 in   Light Drizzle
7:53 PM 42.1 °F 36.6 °F 39.9 °F 92% 29.84 in 3.0 mi South 9.2 mph - 0.02 in Rain Light Rain
8:06 PM 42.8 °F 37.0 °F 39.2 °F 87% 29.82 in 2.0 mi South 10.4 mph - 0.00 in Rain Light Rain
8:36 PM 42.8 °F 36.6 °F 41.0 °F 93% 29.82 in 2.0 mi South 11.5 mph - 0.00 in Rain Light Rain
8:53 PM 42.1 °F 36.1 °F 41.0 °F 96% 29.84 in 2.0 mi South 10.4 mph - 0.01 in Rain Light Rain
9:46 PM 44.6 °F 37.4 °F 42.8 °F 93% 29.81 in 2.5 mi SSW 16.1 mph - 0.02 in Rain Light Rain
9:53 PM 44.1 °F 37.1 °F 42.1 °F 93% 29.83 in 4.0 mi SSW 15.0 mph - 0.02 in   Overcast
10:53 PM 44.1 °F 37.4 °F 42.1 °F 93% 29.82 in 5.0 mi South 13.8 mph - 0.02 in   Overcast
11:53 PM 44.1 °F 39.0 °F 42.1 °F 93% 29.80 in 5.0 mi South 9.2 mph - N/A   Overcast